HST 1 20580U 90037B 25342.28548427 .00010003 00000+0 34811-3 0 9993 2 20580 28.4697 302.8053 0001895 185.8337 174.2236 15.27955239759310 POLAR 1 23802U 96013A 25340.48239671 .00000144 00000+0 00000+0 0 9995 2 23802 79.6240 229.2201 6278774 215.5988 78.9527 1.29846135142354 SWAS 1 25560U 98071A 25342.75088593 .00006452 00000+0 42577-3 0 9998 2 25560 69.8974 358.0374 0006932 220.6959 139.3687 15.07903159468540 CXO 1 25867U 99040B 25343.97594738 .00000473 00000+0 00000+0 0 9991 2 25867 53.0333 122.5432 8145102 310.8822 0.4254 0.37805522 16601 XMM-NEWTON 1 25989U 99066A 25342.87856987 .00000003 00000+0 00000+0 0 9998 2 25989 65.4511 285.4947 4744305 68.2735 0.2993 0.50133255 22050 TERRA 1 25994U 99068A 25342.83543947 .00001029 00000+0 21908-3 0 9994 2 25994 97.9753 34.6632 0003530 105.6119 343.6228 14.60946590381812 CLUSTER II-FM7 (SAMBA) 1 26410U 00041A 25343.43765158 .00002343 00000+0 00000+0 0 9994 2 26410 147.5823 24.8959 8753947 240.5883 359.9553 0.44815248 19460 CLUSTER II-FM8 (TANGO) 1 26464U 00045B 25344.26728891 .00002351 00000+0 00000+0 0 9991 2 26464 147.8765 25.5641 8759828 241.1227 359.8642 0.44418552 19461 ODIN 1 26702U 01007A 25342.83742618 .00039181 00000+0 67493-3 0 9993 2 26702 97.4226 10.6396 0004924 117.9810 242.1941 15.50957763359727 TIMED 1 26998U 01055B 25342.82897325 .00003527 00000+0 32861-3 0 9994 2 26998 74.0694 258.1365 0001266 222.0037 138.1050 14.94669188302376 CORIOLIS 1 27640U 03001A 25342.72598809 .00000269 00000+0 14697-3 0 9993 2 27640 98.7141 347.5227 0014727 44.6535 315.5825 14.19870067187197 SORCE 1 27651U 03004A 25342.84879362 .00006446 00000+0 48991-3 0 9994 2 27651 39.9908 266.5526 0015322 126.0106 234.2110 15.02238076243255 MOST 1 27843U 03031D 25342.85538405 .00000196 00000+0 11011-3 0 9997 2 27843 98.7066 348.2323 0010947 82.9561 277.2861 14.21268704163670 SCISAT 1 1 27858U 03036A 25342.84118039 .00001407 00000+0 18567-3 0 9993 2 27858 73.9291 189.4532 0008484 292.3137 67.7139 14.81111153203268 SWIFT 1 28485U 04047A 25342.81393419 .00046077 00000+0 76900-3 0 9994 2 28485 20.5524 193.9840 0003232 213.2107 146.8133 15.50175019157101 HINODE (SOLAR-B) 1 29479U 06041A 25342.80527882 .00001507 00000+0 26908-3 0 9998 2 29479 98.0652 356.7053 0017780 168.0159 192.1472 14.68293578 26934 SHIJIAN-6 02A (SJ-6 02A) 1 29505U 06046A 25342.89266058 .00005784 00000+0 32044-3 0 9996 2 29505 97.6623 17.6090 0004941 80.5674 279.6116 15.14200978 43441 SHIJIAN-6 02B (SJ-6 02B) 1 29506U 06046B 25342.88684757 .00001932 00000+0 15783-3 0 9998 2 29506 97.6871 8.5168 0014451 349.9441 10.1492 15.00508354 42193 FGRST (GLAST) 1 33053U 08029A 25342.67372347 .00005687 00000+0 22400-3 0 9994 2 33053 25.5827 86.0398 0007906 238.0320 121.9450 15.22551715966758 SDO 1 36395U 10005A 25342.33240248 -.00000081 00000+0 00000+0 0 9992 2 36395 34.2528 89.2527 0001259 132.7872 233.0460 1.00269766 58156 CRYOSAT 2 1 36508U 10013A 25342.79340186 .00000424 00000+0 10443-3 0 9995 2 36508 92.0263 231.2147 0002267 94.0102 266.1364 14.51900737830454 X-SAT 1 37389U 11015C 25342.89389529 .00000106 00000+0 62534-4 0 9997 2 37389 98.3306 324.2271 0013899 177.0662 183.0602 14.25126387760575 GCOM-W1 (SHIZUKU) 1 38337U 12025A 25342.81831779 .00001431 00000+0 32767-3 0 9990 2 38337 98.2207 281.0769 0001499 70.5360 351.8743 14.57117289721311 NUSTAR 1 38358U 12031A 25342.91670139 .00001574 00000+0 48914-4 0 9992 2 38358 6.0287 18.9111 0008076 171.0413 88.0552 15.06334432 1304 NEOSSAT 1 39089U 13009D 25342.75070689 .00000456 00000+0 17245-3 0 9996 2 39089 98.4075 162.3788 0012136 93.8807 266.3767 14.35727446669413 BRITE-AUSTRIA 1 39091U 13009F 25342.77373963 .00000502 00000+0 18571-3 0 9997 2 39091 98.3889 161.9964 0011354 89.0324 271.2163 14.36432747669717 IRIS 1 39197U 13033A 25342.82580983 .00003877 00000+0 45594-3 0 9992 2 39197 97.9394 177.6239 0023726 219.6089 140.3393 14.85258275672119 HISAKI (SPRINT-A) 1 39253U 13049A 25342.67109620 .00000169 00000+0 13789-3 0 9992 2 39253 29.7195 108.5848 0136972 272.3906 86.0990 13.55520806605556 CASSIOPE 1 39265U 13055A 25342.86366272 .00061361 91002-7 82045-3 0 9993 2 39265 80.9247 295.5141 0343580 338.0954 20.5868 15.11002004638784 STSAT-3 1 39422U 13066G 25342.86007703 .00005502 00000+0 43088-3 0 9990 2 39422 97.6001 311.3130 0014443 327.2701 32.7627 15.01335425655636 SWARM B 1 39451U 13067A 25342.86332275 .00006182 00000+0 23235-3 0 9995 2 39451 87.7443 40.0333 0003307 87.2683 272.8944 15.26974447654186 SWARM A 1 39452U 13067B 25342.80722839 .00016363 00000+0 33073-3 0 9992 2 39452 87.3365 126.7120 0002278 88.0737 272.0782 15.46347054676789 SWARM C 1 39453U 13067C 25342.80712940 .00015998 00000+0 32339-3 0 9992 2 39453 87.3363 125.2972 0002260 88.1665 271.9852 15.46343909676746 BRITE-CA1 (TORONTO) 1 40020U 14033L 25342.83406691 .00003020 00000+0 46353-3 0 9998 2 40020 97.9492 110.6537 0079635 165.4854 194.8668 14.72192745614201 OCO 2 1 40059U 14035A 25342.80290242 .00001214 00000+0 27913-3 0 9996 2 40059 98.2212 281.8072 0000877 69.6920 290.4373 14.57156179608329 BRITE-PL2 (HEWELIUSZ) 1 40119U 14049B 25342.84828155 .00004792 00000+0 45834-3 0 9998 2 40119 97.8997 88.6936 0014797 26.6077 333.5899 14.93629107613026 MMS 1 1 40482U 15011A 25342.91670139 -.00000511 00000+0 00000+0 0 9994 2 40482 69.2030 351.5879 8510496 163.3168 331.4246 0.28231529 1375 MMS 2 1 40483U 15011B 25342.91670139 -.00000511 00000+0 00000+0 0 9995 2 40483 69.2005 351.5785 8511949 163.3333 331.3918 0.28231368 1378 MMS 3 1 40484U 15011C 25342.91670139 -.00000511 00000+0 00000+0 0 9996 2 40484 69.2050 351.5950 8511897 163.3292 331.3873 0.28231474 1377 MMS 4 1 40485U 15011D 25342.91670139 -.00000512 00000+0 00000+0 0 9998 2 40485 69.2046 351.5877 8513353 163.3183 331.4290 0.28227295 1368 ASTROSAT 1 40930U 15052A 25342.34267779 .00003117 00000+0 30101-3 0 9999 2 40930 5.9967 88.5762 0008109 193.9196 166.0708 14.81999522551465 DAMPE 1 41173U 15078A 25342.84581735 .00002566 00000+0 90459-4 0 9993 2 41173 97.4546 342.4831 0013364 38.0871 322.1312 15.30136687555438 PISAT 1 41784U 16059B 25342.52875613 .00002269 00000+0 39682-3 0 9997 2 41784 97.8159 346.2763 0030725 94.3562 266.1156 14.68479903491756 HXMT (HUIYAN) 1 42758U 17034A 25342.83819411 .00005919 00000+0 30906-3 0 9996 2 42758 43.0127 161.2781 0032027 18.2840 341.9151 15.16197453468743 FLYING LAPTOP 1 42831U 17042G 25342.86596259 .00007490 00000+0 60718-3 0 9992 2 42831 97.4223 141.6644 0015116 61.5603 298.7142 14.99871896457919 ZHANGHENG 1-01 (CSES-1) 1 43194U 18015C 25342.85787669 .00016035 00000+0 72700-3 0 9991 2 43194 97.6658 139.9663 0017867 219.5997 140.3934 15.20781889435715 SALSAT 1 46495U 20068K 25342.53244303 .00011971 00000+0 46490-3 0 9998 2 46495 97.8781 329.5777 0008725 247.3688 112.6627 15.26213479286247 IXPE 1 49954U 21121A 25342.83335647 .00025226 00000+0 15325-2 0 9997 2 49954 0.2312 315.2932 0007256 80.0753 316.1629 15.07908405 5809